Weather History for Mobridge, SD

Change the Weather History Date:

Thursday, March 20, 2014

  Actual Average Record
Temperature  
Mean Temperature 45 °F 34 °F  
Max Temperature 61 °F 44 °F 71 °F (2007)
Min Temperature 29 °F 23 °F -10 °F (1965)
Degree Days  
Heating Degree Days 20 31  
Month to date heating degree days 744 712  
Since 1 July heating degree days 7284 6687  
Cooling Degree Days 0 0  
Month to date cooling degree days 0 0  
Year to date cooling degree days 0 0  
Moisture  
Dew Point 27 °F    
Average Humidity 54    
Maximum Humidity 85    
Minimum Humidity 23    
Precipitation  
Precipitation T in 0.03 in 0.38 in (2008)
Month to date precipitation 0.33 0.52  
Year to date precipitation 0.94 1.25  
Snow  
Snow 0.00 in - - ()
Month to date snowfall 5.0  
Since 1 July snowfall 36.4  
Snow Depth 0.00 in    
Sea Level Pressure  
Sea Level Pressure 29.81 in    
Wind  
Wind Speed 10 mph (SSE)    
Max Wind Speed 29 mph    
Max Gust Speed 34 mph    
Visibility 10 miles    
Events Rain    
T = Trace of Precipitation, MM = Missing Value Source: NWS Daily Summary

Daily Weather History Graph

Daily Weather History Graph

Search for Another Location

Airport:

Trip Planner

Search our weather history database for the weather conditions in past years. The results will help you decide how hot, cold, wet, or windy it might be!

Date:

Astronomy

Mar. 20, 2014 Rise Set
Actual Time 7:44 AM CDT 7:54 PM CDT
Civil Twilight 7:15 AM CDT 8:23 PM CDT
Nautical Twilight 6:40 AM CDT 8:58 PM CDT
Astronomical Twilight 6:04 AM CDT 9:34 PM CDT
Moon No Moon Rise 9:40 AM CDT (3/20)
Length of Visible Light 13h 08m
Length of Day
12h 09m
Waning Gibbous, 84% of the Moon is Illuminated
Mar 20
Waning Gibbous
Mar 23
Last Quarter
Mar 30
New
Apr 7
First Quarter
Apr 15
Full

Hourly Weather History & Observations

Time (CDT) Temp. Windchill Dew Point Humidity Pressure Visibility Wind Dir Wind Speed Gust Speed Precip Events Conditions
12:52 AM 30.0 °F 26.5 °F 24.1 °F 79% 29.95 in 10.0 mi ESE 3.5 mph - N/A   Clear
1:52 AM 30.0 °F 23.2 °F 24.1 °F 79% 29.94 in 10.0 mi ESE 6.9 mph - N/A   Clear
2:52 AM 30.9 °F 25.2 °F 25.0 °F 79% 29.93 in 10.0 mi ESE 5.8 mph - N/A   Mostly Cloudy
3:52 AM 32.0 °F 25.6 °F 25.0 °F 75% 29.91 in 10.0 mi SE 6.9 mph - N/A   Overcast
4:52 AM 30.9 °F 25.2 °F 25.0 °F 79% 29.91 in 10.0 mi SE 5.8 mph - N/A   Overcast
5:52 AM 32.0 °F 24.2 °F 25.0 °F 75% 29.89 in 10.0 mi SE 9.2 mph - N/A   Scattered Clouds
6:52 AM 28.9 °F 21.9 °F 24.1 °F 82% 29.89 in 10.0 mi SE 6.9 mph - N/A   Clear
7:52 AM 28.9 °F 21.1 °F 24.1 °F 82% 29.89 in 10.0 mi SE 8.1 mph - N/A   Clear
8:52 AM 32.0 °F 24.2 °F 26.1 °F 79% 29.88 in 10.0 mi SSE 9.2 mph - N/A   Scattered Clouds
9:52 AM 35.1 °F 27.4 °F 27.0 °F 72% 29.87 in 10.0 mi SSE 10.4 mph - N/A   Mostly Cloudy
10:52 AM 39.9 °F 32.9 °F 28.9 °F 65% 29.84 in 10.0 mi SSE 11.5 mph - N/A   Partly Cloudy
11:52 AM 44.1 °F 37.7 °F 32.0 °F 63% 29.81 in 10.0 mi SSE 12.7 mph - N/A   Clear
12:52 PM 48.9 °F - 33.1 °F 54% 29.78 in 10.0 mi SSE 10.4 mph - N/A   Clear
1:52 PM 52.0 °F - 33.1 °F 49% 29.74 in 10.0 mi SSE 12.7 mph - N/A   Clear
2:52 PM 57.9 °F - 28.9 °F 33% 29.70 in 10.0 mi SW 10.4 mph 18.4 mph N/A   Clear
3:52 PM 59.0 °F - 21.9 °F 24% 29.68 in 10.0 mi West 12.7 mph - N/A   Mostly Cloudy
4:52 PM 59.0 °F - 21.9 °F 24% 29.67 in 10.0 mi WSW 12.7 mph - N/A   Mostly Cloudy
5:52 PM 57.0 °F - 23.0 °F 27% 29.66 in 10.0 mi West 5.8 mph - N/A   Overcast
6:52 PM 53.1 °F - 25.0 °F 34% 29.68 in 10.0 mi North 8.1 mph - N/A   Overcast
7:52 PM 51.1 °F - 26.1 °F 38% 29.69 in 10.0 mi NNW 11.5 mph - N/A   Overcast
8:52 PM 46.9 °F - 32.0 °F 56% 29.74 in 10.0 mi NNW 8.1 mph - 0.00 in   Overcast
9:52 PM 46.0 °F 38.0 °F 28.0 °F 50% 29.76 in 10.0 mi NW 21.9 mph 27.6 mph N/A   Overcast
10:52 PM 45.0 °F 37.9 °F 30.0 °F 56% 29.77 in 10.0 mi West 16.1 mph 28.8 mph 0.00 in Rain Light Rain
11:52 PM 43.0 °F 38.8 °F 30.0 °F 60% 29.75 in 10.0 mi NW 6.9 mph - 0.00 in   Overcast